Weather History for Selinsgrove, PA

Change the Weather History Date:

Thursday, October 31, 2013

  Actual Average (KIPT) Record (KIPT)
Temperature  
Mean Temperature 56 °F 47 °F  
Max Temperature 64 °F 57 °F 78 °F (1933)
Min Temperature 50 °F 37 °F 21 °F (1988)
Degree Days  
Heating Degree Days 9 18  
Month to date heating degree days 415  
Since 1 July heating degree days 543  
Cooling Degree Days 0 0  
Month to date cooling degree days 5  
Year to date cooling degree days 702  
Growing Degree Days 6 (Base 50)    
Moisture  
Dew Point 55 °F    
Average Humidity 91    
Maximum Humidity 97    
Minimum Humidity 86    
Precipitation  
Precipitation 0.27 in 0.10 in 1.99 in (1899)
Month to date precipitation 3.42  
Year to date precipitation 34.61  
Snow  
Snow 0.00 in - - ()
Month to date snowfall  
Since 1 July snowfall  
Since 1 September snowfall  
Snow Depth -    
Sea Level Pressure  
Sea Level Pressure 29.96 in    
Wind  
Wind Speed 3 mph (SSW)    
Max Wind Speed 10 mph    
Max Gust Speed -    
Visibility 2 miles    
Events Rain    
T = Trace of Precipitation, MM = Missing Value Source: NWS Daily Summary

Daily Weather History Graph

Daily Weather History Graph

Search for Another Location

Airport:

Trip Planner

Search our weather history database for the weather conditions in past years. The results will help you decide how hot, cold, wet, or windy it might be!

Date:

Astronomy

Oct. 31, 2013 Rise Set
Actual Time 7:37 AM EDT 6:04 PM EDT
Civil Twilight 7:08 AM EDT 6:32 PM EDT
Nautical Twilight 6:36 AM EDT 7:05 PM EDT
Astronomical Twilight 6:04 AM EDT 7:37 PM EDT
Moon 4:23 AM EDT 4:22 PM EDT
Length of Visible Light 11h 24m
Length of Day
10h 27m
Waning Crescent, 10% of the Moon is Illuminated
Oct 31
Waning Crescent
Nov 3
New
Nov 10
First Quarter
Nov 17
Full
Nov 25
Last Quarter

Hourly Weather History & Observations

Time (EDT) Temp. Dew Point Humidity Pressure Visibility Wind Dir Wind Speed Gust Speed Precip Events Conditions
12:53 AM 50.0 °F 46.9 °F 89% 30.17 in 5.0 mi Calm Calm - N/A   Overcast
1:48 AM 53.6 °F 50.0 °F 88% 30.17 in 3.0 mi Variable 3.5 mph - N/A   Overcast
1:53 AM 54.0 °F 50.0 °F 86% 30.18 in 3.0 mi Calm Calm - N/A   Overcast
2:16 AM 54.0 °F 50.0 °F 86% 30.18 in 3.0 mi Calm Calm - N/A   Overcast
2:53 AM 54.0 °F 50.0 °F 86% 30.17 in 3.0 mi Calm Calm - N/A   Overcast
3:50 AM 51.8 °F 48.2 °F 88% 30.13 in 3.0 mi Calm Calm - N/A   Overcast
3:53 AM 52.0 °F 48.9 °F 89% 30.13 in 3.0 mi Calm Calm - N/A   Overcast
4:53 AM 53.1 °F 50.0 °F 89% 30.11 in 3.0 mi Calm Calm - N/A   Overcast
5:53 AM 55.0 °F 52.0 °F 89% 30.09 in 4.0 mi South 3.5 mph - N/A   Overcast
6:53 AM 55.9 °F 52.0 °F 87% 30.09 in 4.0 mi SSW 4.6 mph - N/A   Overcast
7:53 AM 55.9 °F 52.0 °F 87% 30.09 in 3.0 mi South 5.8 mph - N/A   Overcast
8:13 AM 55.9 °F 53.1 °F 90% 30.08 in 2.5 mi SSW 8.1 mph - N/A   Overcast
8:35 AM 55.9 °F 53.1 °F 90% 30.08 in 1.8 mi South 5.8 mph - 0.00 in Rain Light Rain
8:44 AM 55.9 °F 53.1 °F 90% 30.07 in 2.0 mi Variable 4.6 mph - 0.00 in Rain Light Rain
8:53 AM 55.9 °F 53.1 °F 90% 30.08 in 2.0 mi SSW 5.8 mph - 0.00 in Rain Light Rain
9:53 AM 55.9 °F 54.0 °F 93% 30.07 in 2.0 mi SW 3.5 mph - 0.00 in   Overcast
10:19 AM 55.9 °F 54.0 °F 93% 30.06 in 1.0 mi Variable 4.6 mph - 0.02 in Rain Heavy Rain
10:51 AM 57.2 °F 55.4 °F 94% 30.04 in 1.2 mi South 6.9 mph - 0.07 in Rain Light Rain
10:53 AM 57.0 °F 55.0 °F 93% 30.04 in 1.2 mi South 4.6 mph - 0.07 in Rain Light Rain
11:18 AM 57.0 °F 55.0 °F 93% 30.03 in 2.0 mi South 5.8 mph - 0.00 in   Overcast
11:53 AM 57.9 °F 55.0 °F 90% 30.02 in 2.0 mi Calm Calm - 0.01 in Rain Light Rain
12:12 PM 57.9 °F 55.0 °F 90% 29.99 in 1.8 mi Calm Calm - 0.00 in   Overcast
12:22 PM 57.9 °F 55.9 °F 93% 29.99 in 2.0 mi Calm Calm - 0.00 in   Overcast
12:53 PM 59.0 °F 55.9 °F 90% 29.97 in 2.0 mi SW 3.5 mph - 0.00 in   Overcast
1:18 PM 59.0 °F 55.9 °F 90% 29.97 in 2.5 mi SSW 5.8 mph - N/A   Overcast
1:53 PM 59.0 °F 55.9 °F 90% 29.95 in 2.5 mi Variable 5.8 mph - N/A   Overcast
2:21 PM 59.0 °F 55.9 °F 90% 29.94 in 2.5 mi SW 5.8 mph - N/A   Overcast
2:53 PM 59.0 °F 55.9 °F 90% 29.92 in 1.8 mi Calm Calm - 0.00 in Rain Light Rain
3:05 PM 59.0 °F 55.9 °F 90% 29.91 in 1.8 mi SSW 4.6 mph - 0.01 in Rain Light Rain
3:12 PM 59.0 °F 55.9 °F 90% 29.91 in 2.0 mi Calm Calm - 0.01 in Rain Light Rain
3:26 PM 60.1 °F 57.0 °F 90% 29.90 in 2.0 mi Variable 3.5 mph - 0.01 in   Overcast
3:44 PM 60.1 °F 57.0 °F 90% 29.90 in 2.0 mi Calm Calm - 0.01 in Rain Light Rain
3:53 PM 60.1 °F 57.0 °F 90% 29.90 in 2.0 mi Calm Calm - 0.01 in   Overcast
4:16 PM 59.0 °F 57.0 °F 93% 29.88 in 1.8 mi Calm Calm - N/A   Overcast
4:53 PM 59.0 °F 57.0 °F 93% 29.90 in 1.8 mi West 4.6 mph - 0.00 in Rain Light Rain
5:39 PM 57.9 °F 57.0 °F 97% 29.87 in 1.0 mi South 5.8 mph - 0.01 in Rain Light Rain
5:46 PM 57.9 °F 57.0 °F 97% 29.86 in 1.2 mi South 5.8 mph - 0.02 in Rain Light Rain
5:53 PM 59.0 °F 57.0 °F 93% 29.86 in 1.2 mi South 5.8 mph - 0.02 in Rain Light Rain
6:44 PM 57.9 °F 57.0 °F 97% 29.84 in 2.5 mi Calm Calm - 0.02 in   Mostly Cloudy
6:53 PM 57.0 °F 55.9 °F 96% 29.84 in 2.0 mi Calm Calm - 0.02 in   Mostly Cloudy
7:14 PM 57.0 °F 55.9 °F 96% 29.83 in 1.5 mi Calm Calm - 0.00 in Rain Light Rain
7:36 PM 57.9 °F 57.0 °F 97% 29.82 in 2.0 mi South 3.5 mph - 0.00 in Rain Light Rain
7:49 PM 59.0 °F 57.2 °F 94% 29.82 in 3.0 mi South 4.6 mph - 0.00 in Rain Light Rain
7:53 PM 60.1 °F 57.0 °F 90% 29.82 in 3.0 mi SSW 5.8 mph - 0.00 in Rain Light Rain
8:53 PM 61.0 °F 57.9 °F 90% 29.78 in 4.0 mi South 8.1 mph - 0.02 in Rain Light Rain
9:31 PM 62.1 °F 57.9 °F 86% 29.78 in 5.0 mi SW 6.9 mph - 0.00 in Rain Light Rain
9:53 PM 61.0 °F 59.0 °F 93% 29.76 in 4.0 mi South 4.6 mph - 0.01 in Rain Light Rain
10:53 PM 62.1 °F 59.0 °F 90% 29.74 in 5.0 mi South 5.8 mph - 0.02 in Rain Light Rain
11:00 PM 62.1 °F 59.0 °F 90% 29.73 in 4.0 mi South 10.4 mph - 0.00 in Rain Light Rain
11:53 PM 62.1 °F 59.0 °F 90% 29.69 in 3.0 mi South 10.4 mph - 0.09 in Rain Rain